Terug naar catalogus

COSMOS 1275 DEB

ActiefPO
NORAD 13024·DEBRIS·🇷🇺 Russia

Gelanceerd Jun 4, 1981 vanaf Plesetsk Cosmodrome

Loading…

Volgende Passages (komende 24 uur)

TLE

VersSource: Space-Track

Epoch: Sep 14, 2026, 13:20 UTC

1 13024U 81053EW  26257.55594044  .00000390  00000-0  21999-3 0  9990
2 13024  82.9223 187.6619 0043801 166.9463 315.8942 14.07481585272902

Volg COSMOS 1275 DEB in realtime met AllMySat

Download on the App Store